This is the latest recevied weather packets stored in our database for station/object W1HVD. If no packets are shown the sender has not sent any weather packets the latest 10 day(s).
| Time | Temp. | Humidity | Pressure | Rain* | Wind** | Luminosity | Snow |
|---|---|---|---|---|---|---|---|
| 1777652154 | 15° C | 45% | 1009.6 hPa | 0 mm | - | 880 W/m² | - |
| 1777651851 | 14.44° C | 48% | 1009.8 hPa | 0 mm | - | 881 W/m² | - |
| 1777651548 | 14.44° C | 49% | 1009.7 hPa | 0 mm | - | 315 W/m² | - |
| 1777651244 | 14.44° C | 46% | 1009.7 hPa | 0 mm | - | 978 W/m² | - |
| 1777650941 | 15° C | 45% | 1009.9 hPa | 0 mm | - | 913 W/m² | - |
| 1777650638 | 13.89° C | 48% | 1009.9 hPa | 0 mm | - | 921 W/m² | - |
| 1777650336 | 13.89° C | 48% | 1010.1 hPa | 0 mm | - | 329 W/m² | - |
| 1777650032 | 13.89° C | 49% | 1010.1 hPa | 0 mm | - | 871 W/m² | - |
| 1777649730 | 13.89° C | 49% | 1009.8 hPa | 0 mm | - | 363 W/m² | - |
| 1777649426 | 13.89° C | 49% | 1010 hPa | 0 mm | - | 301 W/m² | - |
| 1777649123 | 13.89° C | 51% | 1010 hPa | 0 mm | - | 834 W/m² | - |
| 1777648821 | 13.89° C | 49% | 1010.1 hPa | 0 mm | - | 394 W/m² | - |
| 1777648517 | 13.89° C | 50% | 1010.1 hPa | 0 mm | - | 466 W/m² | - |
| 1777648215 | 13.89° C | 49% | 1010 hPa | 0 mm | - | 292 W/m² | - |
| 1777647909 | 13.89° C | 48% | 1010.2 hPa | 0 mm | - | 338 W/m² | - |
| 1777647607 | 14.44° C | 45% | 1010 hPa | 0 mm | - | 832 W/m² | - |
| 1777647302 | 13.33° C | 53% | 1010 hPa | 0 mm | - | 664 W/m² | - |
| 1777647001 | 13.89° C | 48% | 1010.1 hPa | 0 mm | - | 282 W/m² | - |
| 1777646696 | 13.89° C | 51% | 1010.1 hPa | 0 mm | - | 817 W/m² | - |
| 1777646392 | 13.89° C | 49% | 1010.3 hPa | 0 mm | - | 699 W/m² | - |
| 1777646089 | 13.33° C | 53% | 1010.2 hPa | 0 mm | - | 701 W/m² | - |
| 1777645785 | 12.78° C | 52% | 1010.3 hPa | 0 mm | - | 416 W/m² | - |
| 1777645483 | 12.78° C | 53% | 1010.4 hPa | 0 mm | - | 337 W/m² | - |
| 1777645178 | 13.33° C | 53% | 1010.3 hPa | 0 mm | - | 440 W/m² | - |
| 1777644874 | 12.78° C | 56% | 1010.2 hPa | 0 mm | - | 557 W/m² | - |
* Rain latest hour (hover to see other rain measurements)
** Current wind speed in m/s (hover to see current wind gust speed)